This demonstration page uses our WeatherBlox Daily Observations layout. Learn more.

Left ArrowRight Arrow

38.83388, -104.82136

Hourly Observations for January 3, 2015

Temp ( °F °C ) Dew Point ( °F °C ) Humidity (%) Winds ( mph kmh ) Pressure ( in mb ) Visibility ( mi km ) Precip ( " mm )
12:56 am 00:56 Mostly Cloudy 25 -3.8 16 -8.8 69 69 NNW 5 7 29.84 1010 10 16 N/A
1:56 am 01:56 Mostly Cloudy 28 -2.3 17 -8.5 63 63 NNW 6 9 29.81 1010 10 16 N/A
2:56 am 02:56 Mostly Cloudy 26 -3.2 17 -8.6 67 67 N 5 7 29.81 1009 10 16 N/A
3:56 am 03:56 Mostly Cloudy 36 2.1 12 -11 38 38 NW 12 19 29.74 1007 10 16 N/A
4:56 am 04:56 Partly Cloudy 36 2.1 10 -12 35 35 NW 12 19 29.73 1007 10 16 0.00 0.00
5:56 am 05:56 Mostly Clear 35 1.5 12 -11.3 38 38 NNW 10 17 29.75 1007 10 16 N/A
6:56 am 06:56 Clear 34 1 12 -10.9 41 41 NW 18 30 29.77 1008 10 16 N/A
7:56 am 07:56 Sunny 35 1.5 12 -11 39 39 NW 15 24 29.82 1010 10 16 N/A
8:56 am 08:56 Sunny 37 2.6 14 -10.2 39 39 N 12 19 29.82 1010 10 16 N/A
9:56 am 09:56 Sunny 36 2.4 15 -9.5 41 41 N 14 22 29.85 1011 10 16 N/A
10:56 am 10:56 Cloudy 36 2 17 -8.2 47 47 VRB 5 7 29.83 1010 10 16 N/A
11:56 am 11:56 Mostly Cloudy 35 1.9 17 -8.3 47 47 N 10 17 29.83 1010 10 16 N/A
12:56 pm 12:56 Mostly Cloudy 33 0.5 19 -7.4 56 56 N 17 28 29.81 1010 10 16 N/A
1:36 pm 13:36 Mostly Cloudy 30 -1 21 -6 69 69 N 17 28 29.85 1011 10 16 N/A
1:38 pm 13:38 Windy with Snow Showers Likely 30 -1 21 -6 69 69 N 22 35 29.85 1011 10 16 N/A
1:56 pm 13:56 Mostly Cloudy with Light Snow 28 -2 23 -5 80 80 NNW 16 26 29.85 1011 10 16 N/A
2:26 pm 14:26 Mostly Cloudy with Light Snow 28 -2 21 -6 74 74 NW 21 33 29.88 1012 9 14 N/A
2:56 pm 14:56 Mostly Cloudy with Light Snow Showers 28 -2.1 21 -6 75 75 NNW 14 22 29.92 1013 10 16 N/A
3:06 pm 15:06 Windy with Snow Showers Likely 28 -2 21 -6 74 74 N 20 31 29.91 1013 6 10 N/A
3:16 pm 15:16 Mostly Cloudy with Light Snow Showers 27 -3 23 -5 86 86 N 18 30 29.94 1014 4 6 N/A
3:56 pm 15:56 Mostly Cloudy with Light Snow Showers 24 -4.2 20 -6.5 84 84 NNW 12 19 29.93 1013 10 16 N/A
4:21 pm 16:21 Mostly Cloudy with Light Snow Showers 25 -4 19 -7 80 80 NW 15 24 30.03 1017 10 16 N/A
4:22 pm 16:22 Mostly Cloudy 25 -4 19 -7 80 80 NW 14 22 30.03 1017 10 16 N/A
4:32 pm 16:32 Cloudy 25 -4 19 -7 80 80 N 16 26 30.03 1017 10 16 N/A
4:37 pm 16:37 Cloudy 23 -5 18 -8 80 80 N 20 31 30.06 1018 10 16 N/A
4:42 pm 16:42 Windy with Snow Showers Likely 21 -6 16 -9 80 80 N 20 31 30.09 1019 10 16 N/A
4:56 pm 16:56 Cloudy with Light Snow Showers 20 -6.9 16 -8.9 86 86 NNW 15 24 30.00 1016 10 16 N/A
5:23 pm 17:23 Mostly Cloudy with Light Snow Showers 19 -7 14 -10 79 79 N 17 28 30.15 1021 10 16 N/A
5:29 pm 17:29 Mostly Cloudy 18 -8 14 -10 86 86 N 17 28 30.18 1022 10 16 N/A
5:37 pm 17:37 Windy with Snow Showers Likely 18 -8 14 -10 86 86 N 21 33 30.18 1022 10 16 N/A
5:52 pm 17:52 Partly Cloudy with Light Snow Showers 16 -9 12 -11 86 86 NNW 15 24 30.21 1023 10 16 N/A
5:56 pm 17:56 Partly Cloudy with Light Snow Showers 15 -9.3 11 -11.4 85 85 NNW 16 26 30.07 1018 10 16 N/A
6:56 pm 18:56 Mostly Clear with Light Snow Showers 13 -10.7 10 -12.4 87 87 NNW 16 26 30.13 1020 10 16 N/A
6:57 pm 18:57 Partly Cloudy 12 -11 10 -12 92 92 NW 16 26 30.36 1028 10 16 N/A
7:12 pm 19:12 Mostly Cloudy 14 -10 10 -12 85 85 NW 15 24 30.33 1027 10 16 N/A
7:47 pm 19:47 Mostly Cloudy 16 -9 10 -12 79 79 NNW 8 13 30.33 1027 10 16 N/A
7:56 pm 19:56 Mostly Cloudy 15 -9.4 10 -12.1 81 81 N 9 15 30.16 1021 10 16 N/A
8:56 pm 20:56 Mostly Cloudy 13 -10.5 10 -12 89 89 SSE 3 6 30.20 1023 10 16 N/A
9:41 pm 21:41 Mostly Cloudy 12 -11 9 -13 85 85 SSE 6 9 30.42 1030 10 16 N/A
9:56 pm 21:56 Mostly Cloudy 13 -10.8 10 -12.5 87 87 VRB 2 4 30.23 1024 10 16 N/A
9:59 pm 21:59 Mostly Cloudy with Light Snow Showers 12 -11 9 -13 85 85 S 3 6 30.42 1030 10 16 N/A
10:15 pm 22:15 Mostly Cloudy 12 -11 9 -13 85 85 S 6 9 30.42 1030 10 16 N/A
10:25 pm 22:25 Mostly Cloudy with Light Snow Showers 12 -11 9 -13 85 85 SSE 8 13 30.42 1030 10 16 N/A
10:56 pm 22:56 Mostly Cloudy with Light Snow Showers 11 -11.8 8 -13.2 89 89 SSE 6 9 30.26 1025 10 16 N/A
11:01 pm 23:01 Partly Cloudy with Light Snow Showers 10 -12 9 -13 92 92 SSE 3 6 30.45 1031 10 16 N/A
11:44 pm 23:44 Mostly Clear 9 -13 7 -14 92 92 S 1 2 30.48 1032 10 16 N/A
11:56 pm 23:56 Mostly Clear 8 -13.2 6 -14.3 92 92 SSE 3 6 30.27 1025 10 16 N/A

Powered by AerisWeather